Weather History for Poteau, OK

Change the Weather History Date:

Saturday, October 6, 2012

  Actual Average (KFSM) Record (KFSM)
Temperature  
Mean Temperature 48 °F 66 °F  
Max Temperature 51 °F 78 °F 96 °F (1956)
Min Temperature 44 °F 54 °F 35 °F (1964)
Degree Days  
Heating Degree Days 18 3  
Month to date heating degree days 13  
Since 1 July heating degree days 30  
Cooling Degree Days 0 3  
Month to date cooling degree days 24  
Year to date cooling degree days 2002  
Moisture  
Dew Point 43 °F    
Average Humidity 85    
Maximum Humidity 100    
Minimum Humidity 71    
Precipitation  
Precipitation 0.10 in 0.14 in 2.77 in (2008)
Month to date precipitation 0.80  
Year to date precipitation 34.21  
Sea Level Pressure  
Sea Level Pressure 30.25 in    
Wind  
Wind Speed 5 mph (NNE)    
Max Wind Speed 10 mph    
Max Gust Speed -    
Visibility 10 miles    
Events Rain , Thunderstorm    
T = Trace of Precipitation, MM = Missing Value Source: NWS Daily Summary

Daily Weather History Graph

Daily Weather History Graph

Search for Another Location

Airport:

Trip Planner

Search our weather history database for the weather conditions in past years. The results will help you decide how hot, cold, wet, or windy it might be!

Date:

Astronomy

Oct. 06, 2012 Rise Set
Actual Time 7:17 AM CDT 6:54 PM CDT
Civil Twilight 6:52 AM CDT 7:20 PM CDT
Nautical Twilight 6:22 AM CDT 7:49 PM CDT
Astronomical Twilight 5:53 AM CDT 8:18 PM CDT
Moon 11:21 PM CDT (10/6) 1:02 PM CDT (10/6)
Length of Visible Light 12h 27m
Length of Day
11h 37m
Waning Gibbous, 65% of the Moon is Illuminated
Oct 6
Waning Gibbous
Oct 8
Last Quarter
Oct 15
New
Oct 21
First Quarter
Oct 29
Full

Hourly Weather History & Observations

Time (CDT) Temp. Windchill Dew Point Humidity Pressure Visibility Wind Dir Wind Speed Gust Speed Precip Events Conditions
12:15 AM 51.8 °F - 46.4 °F 82% 30.19 in 10.0 mi North 8.1 mph - N/A   Overcast
12:35 AM 51.8 °F - 46.4 °F 82% 30.20 in 10.0 mi NNE 6.9 mph - N/A   Overcast
12:55 AM 51.8 °F - 46.4 °F 82% 30.20 in 10.0 mi NNE 9.2 mph - N/A   Overcast
1:15 AM 51.8 °F - 44.6 °F 76% 30.20 in 10.0 mi NNE 5.8 mph - N/A   Overcast
1:55 AM 51.8 °F - 46.4 °F 82% 30.21 in 10.0 mi NNE 4.6 mph - N/A   Scattered Clouds
2:15 AM 51.8 °F - 44.6 °F 76% 30.21 in 10.0 mi NNE 8.1 mph - N/A   Mostly Cloudy
2:35 AM 51.8 °F - 42.8 °F 71% 30.22 in 10.0 mi NNE 5.8 mph - N/A   Overcast
2:55 AM 50.0 °F - 41.0 °F 71% 30.22 in 10.0 mi NNE 5.8 mph - N/A   Scattered Clouds
3:15 AM 48.2 °F - 41.0 °F 76% 30.22 in 10.0 mi NNE 5.8 mph - N/A   Clear
3:35 AM 48.2 °F - 42.8 °F 82% 30.22 in 10.0 mi North 6.9 mph - N/A   Clear
3:55 AM 46.4 °F 43.5 °F 42.8 °F 87% 30.23 in 10.0 mi North 5.8 mph - N/A   Clear
4:15 AM 44.6 °F 43.1 °F 42.8 °F 93% 30.23 in 10.0 mi NNE 3.5 mph - N/A   Clear
4:35 AM 44.6 °F 43.1 °F 42.8 °F 93% 30.23 in 10.0 mi NE 3.5 mph - N/A   Clear
4:55 AM 44.6 °F 42.2 °F 42.8 °F 93% 30.23 in 10.0 mi NNE 4.6 mph - N/A   Scattered Clouds
5:15 AM 44.6 °F 40.2 °F 42.8 °F 93% 30.24 in 10.0 mi North 8.1 mph - N/A   Overcast
5:35 AM 44.6 °F 41.4 °F 41.0 °F 87% 30.25 in 10.0 mi North 5.8 mph - N/A   Overcast
5:55 AM 44.6 °F 40.7 °F 41.0 °F 87% 30.24 in 10.0 mi NNE 6.9 mph - N/A   Overcast
6:15 AM 44.6 °F 40.2 °F 41.0 °F 87% 30.25 in 10.0 mi NNE 8.1 mph - N/A   Overcast
6:35 AM 44.6 °F 40.2 °F 41.0 °F 87% 30.25 in 10.0 mi NNE 8.1 mph - N/A   Overcast
6:55 AM 46.4 °F 42.4 °F 41.0 °F 81% 30.25 in 10.0 mi NNE 8.1 mph - N/A   Overcast
7:15 AM 46.4 °F 43.5 °F 41.0 °F 81% 30.25 in 10.0 mi NNE 5.8 mph - N/A   Overcast
7:35 AM 46.4 °F 43.5 °F 42.8 °F 87% 30.26 in 10.0 mi NNE 5.8 mph - N/A   Overcast
7:55 AM 46.4 °F 45.2 °F 42.8 °F 87% 30.25 in 10.0 mi NNE 3.5 mph - N/A Thunderstorm Overcast
8:15 AM 48.2 °F - 42.8 °F 82% 30.25 in 10.0 mi NNE 8.1 mph - N/A   Overcast
8:35 AM 48.2 °F - 41.0 °F 76% 30.23 in 10.0 mi NE 6.9 mph - N/A Thunderstorm Overcast
8:55 AM 48.2 °F - 41.0 °F 76% 30.28 in 10.0 mi North 8.1 mph - 0.01 in Rain , Thunderstorm Thunderstorms and Rain
9:15 AM 44.6 °F 41.4 °F 41.0 °F 87% 30.28 in 10.0 mi North 5.8 mph - 0.04 in Rain , Thunderstorm Light Thunderstorms and Rain
9:35 AM 44.6 °F 43.1 °F 42.8 °F 93% 30.26 in 10.0 mi NNE 3.5 mph - 0.05 in Rain , Thunderstorm Light Thunderstorms and Rain
9:55 AM 44.6 °F 41.4 °F 41.0 °F 87% 30.26 in 10.0 mi NNE 5.8 mph - 0.06 in Rain , Thunderstorm Light Thunderstorms and Rain
10:15 AM 44.6 °F 41.4 °F 42.8 °F 93% 30.28 in 10.0 mi North 5.8 mph - N/A Rain Light Rain
10:35 AM 44.6 °F 41.4 °F 42.8 °F 93% 30.28 in 10.0 mi North 5.8 mph - N/A Thunderstorm Unknown
10:55 AM 46.4 °F 41.9 °F 41.0 °F 81% 30.28 in 10.0 mi NNE 9.2 mph - N/A Rain Light Rain
11:15 AM 44.6 °F 39.2 °F 39.2 °F 81% 30.28 in 10.0 mi NE 10.4 mph - N/A   Overcast
11:35 AM 44.6 °F 40.2 °F 39.2 °F 81% 30.28 in 10.0 mi NE 8.1 mph - N/A Rain Light Rain
11:55 AM 44.6 °F 43.1 °F 42.8 °F 93% 30.30 in 10.0 mi NNE 3.5 mph - N/A Rain , Thunderstorm Light Thunderstorms and Rain
12:15 PM 44.6 °F 41.4 °F 42.8 °F 93% 30.28 in 10.0 mi NNE 5.8 mph - 0.01 in Rain , Thunderstorm Rain
12:35 PM 44.6 °F 41.4 °F 42.8 °F 93% 30.28 in 10.0 mi NNE 5.8 mph - 0.01 in Thunderstorm Overcast
12:55 PM 46.4 °F 44.3 °F 41.0 °F 81% 30.28 in 10.0 mi NE 4.6 mph - 0.01 in   Overcast
1:15 PM 46.4 °F 42.9 °F 41.0 °F 81% 30.28 in 10.0 mi NE 6.9 mph - N/A   Overcast
1:35 PM 46.4 °F 45.2 °F 41.0 °F 81% 30.28 in 10.0 mi NNE 3.5 mph - N/A   Overcast
1:55 PM 48.2 °F - 42.8 °F 82% 30.27 in 10.0 mi Calm Calm - N/A   Overcast
2:15 PM 48.2 °F - 42.8 °F 82% 30.26 in 10.0 mi Calm Calm - N/A   Overcast
2:35 PM 48.2 °F - 42.8 °F 82% 30.25 in 10.0 mi Calm Calm - N/A   Overcast
2:55 PM 48.2 °F - 41.0 °F 76% 30.25 in 10.0 mi Calm Calm - N/A   Overcast
3:15 PM 48.2 °F - 41.0 °F 76% 30.24 in 10.0 mi Calm Calm - N/A   Overcast
3:35 PM 48.2 °F - 41.0 °F 76% 30.24 in 10.0 mi Calm Calm - N/A Thunderstorm Overcast
3:55 PM 48.2 °F - 41.0 °F 76% 30.24 in 10.0 mi Calm Calm - N/A   Overcast
4:15 PM 48.2 °F - 41.0 °F 76% 30.24 in 10.0 mi Calm Calm - N/A   Overcast
4:35 PM 48.2 °F - 42.8 °F 82% 30.23 in 10.0 mi Calm Calm - N/A   Overcast
4:55 PM 48.2 °F - 42.8 °F 82% 30.24 in 10.0 mi Calm Calm - N/A Rain Light Rain
5:15 PM 48.2 °F - 44.6 °F 87% 30.23 in 10.0 mi Calm Calm - N/A Rain Light Rain
5:35 PM 48.2 °F - 44.6 °F 87% 30.23 in 10.0 mi Calm Calm - N/A Rain Light Rain
6:15 PM 48.2 °F - 44.6 °F 87% 30.23 in 10.0 mi Calm Calm - N/A   Overcast
6:35 PM 48.2 °F - 44.6 °F 87% 30.25 in 10.0 mi Calm Calm - N/A   Overcast
6:55 PM 48.2 °F - 44.6 °F 87% 30.24 in 7.0 mi Calm Calm - 0.01 in Rain Light Rain
7:15 PM 46.4 °F - 44.6 °F 93% 30.25 in 10.0 mi Calm Calm - 0.01 in   Overcast
7:35 PM 48.2 °F - 44.6 °F 87% 30.26 in 10.0 mi Calm Calm - 0.01 in   Overcast
7:55 PM 46.4 °F - 46.4 °F 100% 30.26 in 10.0 mi Calm Calm - 0.01 in   Overcast
8:15 PM 48.2 °F - 46.4 °F 93% 30.28 in 10.0 mi Calm Calm - N/A   Overcast
8:35 PM 48.2 °F - 46.4 °F 93% 30.28 in 10.0 mi Calm Calm - N/A   Overcast
8:55 PM 48.2 °F - 46.4 °F 93% 30.28 in 10.0 mi Calm Calm - N/A   Overcast
9:15 PM 48.2 °F - 46.4 °F 93% 30.28 in 10.0 mi Calm Calm - N/A   Overcast
9:35 PM 48.2 °F - 46.4 °F 93% 30.29 in 10.0 mi Calm Calm - N/A   Overcast
9:55 PM 48.2 °F - 44.6 °F 87% 30.28 in 10.0 mi North 10.4 mph - N/A   Overcast
10:15 PM 48.2 °F - 44.6 °F 87% 30.28 in 10.0 mi NNE 3.5 mph - N/A   Overcast
10:35 PM 48.2 °F - 42.8 °F 82% 30.29 in 10.0 mi NNE 4.6 mph - N/A   Overcast
10:55 PM 48.2 °F - 42.8 °F 82% 30.29 in 10.0 mi North 5.8 mph - N/A   Overcast
11:15 PM 48.2 °F - 42.8 °F 82% 30.28 in 10.0 mi North 4.6 mph - N/A   Overcast
11:35 PM 46.4 °F 42.9 °F 42.8 °F 87% 30.28 in 10.0 mi North 6.9 mph - N/A   Overcast
11:55 PM 46.4 °F 44.3 °F 42.8 °F 87% 30.29 in 10.0 mi North 4.6 mph - N/A   Overcast